Location: Cruquius
(52.3348°N, 4.6319°E)
Time: 06:19:40
(UTC+00:00)

Cosmos 1048 Rocket - Pass Details

Date: 12 May 2021
Orbit: 743 x 791 km, 74.0° (Epoch: 20 June)

Event Time Altitude Azimuth Distance (km) Brightness Sun altitude
Rises 23:19:36 0° 332° (NNW) 3,287 8.5 -19.2°
Reaches altitude 10° 23:22:02 10° 329° (NNW) 2,348 7.4 -19.2°
Maximum altitude 23:27:17 60° 251° (WSW) 884 4.2 -19.2°
Enters shadow 23:29:10 37° 188° (S) 1,178 4.4 -19.3°
